Flag for U.S.A. Weather past 2 weeks in El Paso, Texas, U.S.A.

Now
82 °F

Clear.


Feels Like: 81 °F
Forecast: 75 / 98 °F
Wind: 9 mph from East

Location: El Paso International Airport

Current Time: Jul 23, 2014 at 11:16:04 PM

Latest Report: Jul 23, 2014 at 10:51 PM


Visibility: 10 mi

Pressure: 29.93 "Hg

Humidity: 32%

Dew point: 49 °F

Location of El PasoLocation

Historic Weather in El Paso — Graph

°F

El Paso temperature yesterday

Maximum temperature yesterday: 88 °F (at 10:51 AM)
Minimum temperature yesterday: 75 °F (at 10:51 PM)
Average temperature yesterday: 80 °F

Past Weeks' High & Low Weather Summary

 TemperatureHumidityPressure
High103 °F (Jul 19, 3:51 PM)88% (Jul 23, 3:51 AM)30.08 "Hg (Jul 23, 3:51 AM)
Low68 °F (Jul 16, 5:51 AM)11% (Jul 19, 2:51 PM)29.64 "Hg (Jul 17, 5:51 PM)
Average84 °F39%29.83 "Hg
* Reported Jul 8 9:51 PM — Jul 23 9:51 PM, El Paso, Weather by CustomWeather, © 2014

Note: Actual official high and low records may vary slightly from our data, if they occured in-between our weather recording intervals... More about our weather records

Advertising

El Paso weather history for previous 24 hours

 ConditionsComfort  
Time TempWeatherWind HumidityBarometerVisibility
9:51 PM
Jul 23
84 °FPassing clouds.7 mph30%29.93 "Hg10 mi
8:51 PM88 °FPassing clouds.9 mph23%29.90 "Hg10 mi
7:51 PM91 °FPassing clouds.12 mph20%29.88 "Hg10 mi
6:51 PM93 °FPassing clouds.15 mph17%29.89 "Hg10 mi
5:51 PM94 °FPassing clouds.15 mph17%29.88 "Hg10 mi
4:51 PM95 °FPassing clouds.12 mph17%29.90 "Hg10 mi
3:51 PM95 °FPassing clouds.17 mph17%29.91 "Hg10 mi
2:51 PM94 °FScattered clouds.15 mph20%29.94 "Hg10 mi
1:51 PM93 °FScattered clouds.14 mph22%29.97 "Hg10 mi
12:51 PM91 °FScattered clouds.17 mph26%30.00 "Hg10 mi
11:51 AM90 °FScattered clouds.16 mph33%30.01 "Hg10 mi
10:51 AM87 °FPassing clouds.12 mph39%30.02 "Hg10 mi
9:51 AM82 °FPassing clouds.3 mph55%30.02 "Hg10 mi
8:51 AM79 °FPassing clouds.5 mph62%30.03 "Hg10 mi
7:51 AM76 °FPassing clouds.No wind67%30.02 "Hg10 mi
6:51 AM70 °FPassing clouds.3 mph87%30.02 "Hg10 mi
5:51 AM71 °FPassing clouds.7 mph84%30.00 "Hg10 mi
4:51 AM73 °FPassing clouds.6 mph84%29.96 "Hg10 mi
3:51 AM73 °FLight rain. Passing clouds.No wind88%29.96 "Hg10 mi
2:51 AM75 °FPassing clouds.3 mph74%29.96 "Hg10 mi
1:51 AM74 °FLight rain. Mostly cloudy.5 mph85%29.98 "Hg10 mi
11:51 PM
Jul 22
75 °FPartly cloudy.No wind79%29.99 "Hg10 mi
Weather by CustomWeather, © 2014

See weather overviewHow to use our weather pages